Year,Month,Day,Hour,Minute,Value (Times are PST for temperature in C)
2009,07,06,09,49,14.90
2009,07,06,09,50,14.90
2009,07,06,09,51,14.90
2009,07,06,09,52,14.90
2009,07,06,09,53,14.90
2009,07,06,09,54,14.80
2009,07,06,09,55,14.80
2009,07,06,09,56,14.80
2009,07,06,09,57,14.80
2009,07,06,09,58,14.80
2009,07,06,09,59,14.80
2009,07,06,10,00,14.80
2009,07,06,10,01,14.80
2009,07,06,10,02,14.90
2009,07,06,10,03,14.90
2009,07,06,10,04,15.00
2009,07,06,10,05,15.00
2009,07,06,10,06,15.00
2009,07,06,10,07,15.00
2009,07,06,10,08,15.00
2009,07,06,10,09,15.00
2009,07,06,10,10,15.00
2009,07,06,10,11,15.00
2009,07,06,10,12,15.00
2009,07,06,10,13,15.00
2009,07,06,10,14,15.00
2009,07,06,10,15,15.00
2009,07,06,10,16,15.00
2009,07,06,10,17,15.00
2009,07,06,10,18,15.00
2009,07,06,10,19,15.00
2009,07,06,10,20,15.00
2009,07,06,10,21,15.00
2009,07,06,10,22,15.00
2009,07,06,10,23,15.00
2009,07,06,10,24,15.00
2009,07,06,10,25,15.00
2009,07,06,10,26,15.00
2009,07,06,10,27,15.10
2009,07,06,10,28,15.10
2009,07,06,10,29,15.10
2009,07,06,10,30,15.20
2009,07,06,10,31,15.20
2009,07,06,10,32,15.20
2009,07,06,10,33,15.20
2009,07,06,10,34,15.20
2009,07,06,10,35,15.20
2009,07,06,10,36,15.10
2009,07,06,10,37,15.20
2009,07,06,10,38,15.20
2009,07,06,10,39,15.20
2009,07,06,10,40,15.20
2009,07,06,10,41,15.30
2009,07,06,10,42,15.30
2009,07,06,10,43,15.30
2009,07,06,10,44,15.40
2009,07,06,10,45,15.40
2009,07,06,10,46,15.40
2009,07,06,10,47,15.40
2009,07,06,10,48,15.30
2009,07,06,10,49,15.30
2009,07,06,10,50,15.30
2009,07,06,10,51,15.30
2009,07,06,10,52,15.30
2009,07,06,10,53,15.30
2009,07,06,10,54,15.30
2009,07,06,10,55,15.40
2009,07,06,10,56,15.40
2009,07,06,10,57,15.40
2009,07,06,10,58,15.50
2009,07,06,10,59,15.50
2009,07,06,11,00,15.60
2009,07,06,11,01,15.60
2009,07,06,11,02,15.70
2009,07,06,11,03,15.70
2009,07,06,11,04,15.80
2009,07,06,11,05,15.80
2009,07,06,11,06,15.80
2009,07,06,11,07,15.80
2009,07,06,11,08,15.90
2009,07,06,11,09,16.00
2009,07,06,11,10,16.10
2009,07,06,11,11,16.20
2009,07,06,11,12,16.20
2009,07,06,11,13,16.20
2009,07,06,11,14,16.30
2009,07,06,11,15,16.30
2009,07,06,11,16,16.40
2009,07,06,11,17,16.40
2009,07,06,11,18,16.40
2009,07,06,11,19,16.50
2009,07,06,11,20,16.50
2009,07,06,11,21,16.50
2009,07,06,11,22,16.50
2009,07,06,11,23,16.60
2009,07,06,11,24,16.60
2009,07,06,11,25,16.70
2009,07,06,11,26,16.70
2009,07,06,11,27,16.80
2009,07,06,11,28,16.80
2009,07,06,11,29,16.80
2009,07,06,11,30,16.80
2009,07,06,11,31,16.80
2009,07,06,11,32,16.80
2009,07,06,11,33,16.90
2009,07,06,11,34,16.90
2009,07,06,11,35,17.00
2009,07,06,11,36,17.00
2009,07,06,11,37,17.00
2009,07,06,11,38,16.90
2009,07,06,11,39,16.90
2009,07,06,11,40,16.90
2009,07,06,11,41,17.00
2009,07,06,11,42,16.90
2009,07,06,11,43,16.90
2009,07,06,11,44,16.90
2009,07,06,11,45,16.90
2009,07,06,11,46,16.90
2009,07,06,11,47,16.80
2009,07,06,11,48,16.70
2009,07,06,11,49,16.60
2009,07,06,11,50,16.50
2009,07,06,11,51,16.40
2009,07,06,11,52,16.30
2009,07,06,11,53,16.20
2009,07,06,11,54,16.10
2009,07,06,11,55,16.00
2009,07,06,11,56,15.90
2009,07,06,11,57,15.80
2009,07,06,11,58,15.60
2009,07,06,11,59,15.50
2009,07,06,12,00,15.30
2009,07,06,12,01,15.20
2009,07,06,12,02,15.10
2009,07,06,12,03,15.00
2009,07,06,12,04,15.00
2009,07,06,12,05,15.00
2009,07,06,12,06,15.00
2009,07,06,12,07,15.00
2009,07,06,12,08,14.90
2009,07,06,12,09,14.90
2009,07,06,12,10,14.90
2009,07,06,12,11,14.90
2009,07,06,12,12,14.90
2009,07,06,12,13,14.90
2009,07,06,12,14,14.90
2009,07,06,12,15,14.90
2009,07,06,12,16,14.80
2009,07,06,12,17,14.80
2009,07,06,12,18,14.80
2009,07,06,12,19,14.80
2009,07,06,12,20,14.80
2009,07,06,12,21,14.80
2009,07,06,12,22,14.80
2009,07,06,12,23,14.80
2009,07,06,12,24,14.70
2009,07,06,12,25,14.70
2009,07,06,12,26,14.70
2009,07,06,12,27,14.70
2009,07,06,12,28,14.70
2009,07,06,12,29,14.70
2009,07,06,12,30,14.70
2009,07,06,12,31,14.70
2009,07,06,12,32,14.70
2009,07,06,12,33,14.70
2009,07,06,12,34,14.70
2009,07,06,12,35,14.70
2009,07,06,12,36,14.70
2009,07,06,12,37,14.70
2009,07,06,12,38,14.60
2009,07,06,12,39,14.60
2009,07,06,12,40,14.50
2009,07,06,12,41,14.50
2009,07,06,12,42,14.50
2009,07,06,12,43,14.40
2009,07,06,12,44,14.40
2009,07,06,12,45,14.40
2009,07,06,12,46,14.40
2009,07,06,12,47,14.40
2009,07,06,12,48,14.40
2009,07,06,12,49,14.50
2009,07,06,12,50,14.50
2009,07,06,12,51,14.40
2009,07,06,12,52,14.40
2009,07,06,12,53,14.40
2009,07,06,12,54,14.40
2009,07,06,12,55,14.40
2009,07,06,12,56,14.40
2009,07,06,12,57,14.40
2009,07,06,12,58,14.40
2009,07,06,12,59,14.40
2009,07,06,13,00,14.40
2009,07,06,13,01,14.40
2009,07,06,13,02,14.40
2009,07,06,13,03,14.40
2009,07,06,13,04,14.40
2009,07,06,13,05,14.30
2009,07,06,13,06,14.30
2009,07,06,13,07,14.30
2009,07,06,13,08,14.30
2009,07,06,13,09,14.20
2009,07,06,13,10,14.20
2009,07,06,13,11,14.20
2009,07,06,13,12,14.20
2009,07,06,13,13,14.20
2009,07,06,13,14,14.20
2009,07,06,13,15,14.20
2009,07,06,13,16,14.30
2009,07,06,13,17,14.30
2009,07,06,13,18,14.30
2009,07,06,13,19,14.30
2009,07,06,13,20,14.40
2009,07,06,13,21,14.40
2009,07,06,13,22,14.50
2009,07,06,13,23,14.50
2009,07,06,13,24,14.50
2009,07,06,13,25,14.40
2009,07,06,13,26,14.40
2009,07,06,13,27,14.40
2009,07,06,13,28,14.30
2009,07,06,13,29,14.30
2009,07,06,13,30,14.30
2009,07,06,13,31,14.30
2009,07,06,13,32,14.30
2009,07,06,13,33,14.30
2009,07,06,13,34,14.30
2009,07,06,13,35,14.30
2009,07,06,13,36,14.30
2009,07,06,13,37,14.20
2009,07,06,13,38,14.10
2009,07,06,13,39,14.10
2009,07,06,13,40,14.10
2009,07,06,13,41,14.10
2009,07,06,13,42,14.10
2009,07,06,13,43,14.10
2009,07,06,13,44,14.10
2009,07,06,13,45,14.10
2009,07,06,13,46,14.10
2009,07,06,13,47,14.10
2009,07,06,13,48,14.10
2009,07,06,13,49,14.00
2009,07,06,13,50,14.00
2009,07,06,13,51,14.00
2009,07,06,13,52,14.00
2009,07,06,13,53,14.00
2009,07,06,13,54,14.00
2009,07,06,13,55,14.00
2009,07,06,13,56,13.90
2009,07,06,13,57,13.90
2009,07,06,13,58,13.90
2009,07,06,13,59,13.90
2009,07,06,14,00,13.90
2009,07,06,14,01,13.90
2009,07,06,14,02,13.90
2009,07,06,14,03,13.90
2009,07,06,14,04,13.90
2009,07,06,14,05,13.90
2009,07,06,14,06,13.90
2009,07,06,14,07,13.90
2009,07,06,14,08,13.90
2009,07,06,14,09,13.90
2009,07,06,14,10,13.90
2009,07,06,14,11,13.90
2009,07,06,14,12,13.90
2009,07,06,14,13,14.00
2009,07,06,14,14,14.00
2009,07,06,14,15,14.00
2009,07,06,14,16,14.00
2009,07,06,14,17,14.00
2009,07,06,14,18,14.10
2009,07,06,14,19,14.10
2009,07,06,14,20,14.10
2009,07,06,14,21,14.10
2009,07,06,14,22,14.10
2009,07,06,14,23,14.10
2009,07,06,14,24,14.10
2009,07,06,14,25,14.10
2009,07,06,14,26,14.10
2009,07,06,14,27,14.10
2009,07,06,14,28,14.10
2009,07,06,14,29,14.10
2009,07,06,14,30,14.10
2009,07,06,14,31,14.10
2009,07,06,14,32,14.20
2009,07,06,14,33,14.20
2009,07,06,14,34,14.20
2009,07,06,14,35,14.20
2009,07,06,14,36,14.20
2009,07,06,14,37,14.20
2009,07,06,14,38,14.30
2009,07,06,14,39,14.30
2009,07,06,14,40,14.30
2009,07,06,14,41,14.30
2009,07,06,14,42,14.30
2009,07,06,14,43,14.30
2009,07,06,14,44,14.30
2009,07,06,14,45,14.30
2009,07,06,14,46,14.40
2009,07,06,14,47,14.40
2009,07,06,14,48,14.40
2009,07,06,14,49,14.50
2009,07,06,14,50,14.50
2009,07,06,14,51,14.60
2009,07,06,14,52,14.70
2009,07,06,14,53,14.70
2009,07,06,14,54,14.80
2009,07,06,14,55,14.90
2009,07,06,14,56,15.00
2009,07,06,14,57,15.00
2009,07,06,14,58,15.00
2009,07,06,14,59,15.00
2009,07,06,15,00,15.00
2009,07,06,15,01,15.10
2009,07,06,15,02,15.20
2009,07,06,15,03,15.20
2009,07,06,15,04,15.20
2009,07,06,15,05,15.20
2009,07,06,15,06,15.20
2009,07,06,15,07,15.30
2009,07,06,15,08,15.20
2009,07,06,15,09,15.20
2009,07,06,15,10,15.20
2009,07,06,15,11,15.20
2009,07,06,15,12,15.30
2009,07,06,15,13,15.30
2009,07,06,15,14,15.30
2009,07,06,15,15,15.30
2009,07,06,15,16,15.40
2009,07,06,15,17,15.40
2009,07,06,15,18,15.40
2009,07,06,15,19,15.40
2009,07,06,15,20,15.40
2009,07,06,15,21,15.40
2009,07,06,15,22,15.30
2009,07,06,15,23,15.40
2009,07,06,15,24,15.40
2009,07,06,15,25,15.40
2009,07,06,15,26,15.50
2009,07,06,15,27,15.50
2009,07,06,15,28,15.60
2009,07,06,15,29,15.60
2009,07,06,15,30,15.60
2009,07,06,15,31,15.60
2009,07,06,15,32,15.60
2009,07,06,15,33,15.60
2009,07,06,15,34,15.60
2009,07,06,15,35,15.50
2009,07,06,15,36,15.50
2009,07,06,15,37,15.40
2009,07,06,15,38,15.30
2009,07,06,15,39,15.20
2009,07,06,15,40,15.20
2009,07,06,15,41,15.10
2009,07,06,15,42,15.10
2009,07,06,15,43,15.10
2009,07,06,15,44,15.00
2009,07,06,15,45,15.00
2009,07,06,15,46,15.00
2009,07,06,15,47,15.00
2009,07,06,15,48,15.00
2009,07,06,15,49,15.00
2009,07,06,15,50,15.00
2009,07,06,15,51,15.00
2009,07,06,15,52,15.00
2009,07,06,15,53,15.00
2009,07,06,15,54,15.00
2009,07,06,15,55,15.00
2009,07,06,15,56,15.00
2009,07,06,15,57,15.00
2009,07,06,15,58,15.00
2009,07,06,15,59,15.00
2009,07,06,16,00,15.00
2009,07,06,16,01,15.00
2009,07,06,16,02,15.00
2009,07,06,16,03,15.00
2009,07,06,16,04,15.00
2009,07,06,16,05,15.00
2009,07,06,16,06,14.90
2009,07,06,16,07,14.90
2009,07,06,16,08,14.80
2009,07,06,16,09,14.80
2009,07,06,16,10,14.90
2009,07,06,16,11,14.90
2009,07,06,16,12,14.90
2009,07,06,16,13,15.00
2009,07,06,16,14,15.00
2009,07,06,16,15,15.00
2009,07,06,16,16,15.00
2009,07,06,16,17,15.00
2009,07,06,16,18,15.00
2009,07,06,16,19,15.00
2009,07,06,16,20,14.90
2009,07,06,16,21,14.90
2009,07,06,16,22,14.90
2009,07,06,16,23,14.80
2009,07,06,16,24,14.90
2009,07,06,16,25,14.90
2009,07,06,16,26,14.90
2009,07,06,16,27,15.00
2009,07,06,16,28,15.00
2009,07,06,16,29,15.00
2009,07,06,16,30,14.90
2009,07,06,16,31,14.90
2009,07,06,16,32,15.00
2009,07,06,16,33,15.00
2009,07,06,16,34,15.00
2009,07,06,16,35,15.00
2009,07,06,16,36,15.00
2009,07,06,16,37,15.00
2009,07,06,16,38,15.00
2009,07,06,16,39,15.00
2009,07,06,16,40,15.00
2009,07,06,16,41,15.00
2009,07,06,16,42,15.00
2009,07,06,16,43,15.00
2009,07,06,16,44,15.00
2009,07,06,16,45,15.00
2009,07,06,16,46,15.00
2009,07,06,16,47,15.00
2009,07,06,16,48,15.00
2009,07,06,16,49,15.00
2009,07,06,16,50,15.00
2009,07,06,16,51,15.00
2009,07,06,16,52,15.00
2009,07,06,16,53,15.00
2009,07,06,16,54,15.00
2009,07,06,16,55,15.00
2009,07,06,16,56,15.00
2009,07,06,16,57,15.00
2009,07,06,16,58,15.00
2009,07,06,16,59,15.00
2009,07,06,17,00,15.00
2009,07,06,17,01,15.00
2009,07,06,17,02,15.00
2009,07,06,17,03,15.00
2009,07,06,17,04,15.00
2009,07,06,17,05,15.00
2009,07,06,17,06,15.00
2009,07,06,17,07,15.00
2009,07,06,17,08,15.00
2009,07,06,17,09,15.00
2009,07,06,17,10,15.00
2009,07,06,17,11,15.00
2009,07,06,17,12,15.00
2009,07,06,17,13,15.00
2009,07,06,17,14,15.00
2009,07,06,17,15,15.00
2009,07,06,17,16,15.00
2009,07,06,17,17,15.00
2009,07,06,17,18,15.00
2009,07,06,17,19,15.00
2009,07,06,17,20,15.00
2009,07,06,17,21,14.90
2009,07,06,17,22,14.90
2009,07,06,17,23,14.90
2009,07,06,17,24,14.80
2009,07,06,17,25,14.80
2009,07,06,17,26,14.80
2009,07,06,17,27,14.80
2009,07,06,17,28,14.80
2009,07,06,17,29,14.80
2009,07,06,17,30,14.80
2009,07,06,17,31,14.80
2009,07,06,17,32,14.80
2009,07,06,17,33,14.80
2009,07,06,17,34,14.80
2009,07,06,17,35,14.80
2009,07,06,17,36,14.70
2009,07,06,17,37,14.70
2009,07,06,17,38,14.70
2009,07,06,17,39,14.70
2009,07,06,17,40,14.60
2009,07,06,17,41,14.60
2009,07,06,17,42,14.60
2009,07,06,17,43,14.70
2009,07,06,17,44,14.70
2009,07,06,17,45,14.70
2009,07,06,17,46,14.70
2009,07,06,17,47,14.70
2009,07,06,17,48,14.70
2009,07,06,17,49,14.70
2009,07,06,17,50,14.70
2009,07,06,17,51,14.70
2009,07,06,17,52,14.70
2009,07,06,17,53,14.70
2009,07,06,17,54,14.70
2009,07,06,17,55,14.70
2009,07,06,17,56,14.70
2009,07,06,17,57,14.70
2009,07,06,17,58,14.70
2009,07,06,17,59,14.70
2009,07,06,18,00,14.60
2009,07,06,18,01,14.60
2009,07,06,18,02,14.60
2009,07,06,18,03,14.60
2009,07,06,18,04,14.60
2009,07,06,18,05,14.60
2009,07,06,18,06,14.70
2009,07,06,18,07,14.70
2009,07,06,18,08,14.70
2009,07,06,18,09,14.80
2009,07,06,18,10,14.80
2009,07,06,18,11,14.80
2009,07,06,18,12,14.90
2009,07,06,18,13,14.90
2009,07,06,18,14,14.80
2009,07,06,18,15,14.90
2009,07,06,18,16,14.90
2009,07,06,18,17,14.90
2009,07,06,18,18,14.90
2009,07,06,18,19,14.90
2009,07,06,18,20,14.90
2009,07,06,18,21,14.90
2009,07,06,18,22,14.90
2009,07,06,18,23,14.90
2009,07,06,18,24,14.90
2009,07,06,18,25,14.90
2009,07,06,18,26,14.90
2009,07,06,18,27,14.90
2009,07,06,18,28,14.80
2009,07,06,18,29,14.80
2009,07,06,18,30,14.80
2009,07,06,18,31,14.80
2009,07,06,18,32,14.80
2009,07,06,18,33,14.80
2009,07,06,18,34,14.80
2009,07,06,18,35,14.90
2009,07,06,18,36,14.90
2009,07,06,18,37,14.90
2009,07,06,18,38,14.90
2009,07,06,18,39,14.90
2009,07,06,18,40,14.90
2009,07,06,18,41,14.90
2009,07,06,18,42,15.00
2009,07,06,18,43,15.00
2009,07,06,18,44,15.00
2009,07,06,18,45,15.00
2009,07,06,18,46,15.00
2009,07,06,18,47,14.90
2009,07,06,18,48,14.90
2009,07,06,18,49,14.80
2009,07,06,18,50,14.80
2009,07,06,18,51,14.80
2009,07,06,18,52,14.70
2009,07,06,18,53,14.70
2009,07,06,18,54,14.70
2009,07,06,18,55,14.70
2009,07,06,18,56,14.70
2009,07,06,18,57,14.70
2009,07,06,18,58,14.70
2009,07,06,18,59,14.70
2009,07,06,19,00,14.70
2009,07,06,19,01,14.70
2009,07,06,19,02,14.70
2009,07,06,19,03,14.70
2009,07,06,19,04,14.70
2009,07,06,19,05,14.70
